Portada
METAR-TAF:

METAR-TAF

Aeropuertos :

Khorramabad, Irán

latitud: 33-26-11N, longitud: 048-17-09E, altitud: 1155 m

Observación

El informe se hizo hace 18 minutos, a las 12:30 UTC
Viento 8 kt del oeste
Temperatura 15°C
Humedad 29%
Presión 1016 hPa
Visibilidad 10 km o más
Escasas nubes a una altura de 5000 ft

METAR: OICK 271230Z 26008KT 9999 FEW050 15/M03 Q1016

Hora: 16:18 (12:48 UTC)


TAF: falta

Observaciones y pronósticos meteorológicos de más de 4000 aeropuertos (mensajes METAR y TAF).

Los puntos amarillos y rojos representan las estaciones disponibles.

Ponga el ratón en el punto deseado para ver el nombre de la estación.

Haga clic para ver las observaciones y los pronósticos meteorológicos.

Para cambiar el mapa : haga clic en los botones verdes con una cruz de color negro para hacer un zoom, en el botón verde con un guión para alejar o en las flechas verdes para mapas adyacentes.


METAR-TAF: